Satellite-Ground Cal/Val Site Overpasses Predictions

Prediction of Satellite NPP Overpassing Cal/Val Site: Antarctic Dome C

Ground Cal/Val Site Location: Latitude: -75.10, Longitude: 123.35; Satellite-Ground Site NADIR distance within 100 km.

Table of predicted overpasses for the next 14.0 days since TLE Epoch: 8/5/2012
Interval Starting Time Ending Time Minimum Distance Time Minimum Distance (km)
1 08/05/2012 15:05:44 08/05/2012 15:05:54 08/05/2012 15:05:49 94.16
2 08/06/2012 14:46:45 08/06/2012 14:47:14 08/06/2012 14:47:00 17.27
3 08/08/2012 07:29:34 08/08/2012 07:30:03 08/08/2012 07:29:49 1.73
4 08/11/2012 14:53:00 08/11/2012 14:53:29 08/11/2012 14:53:15 19.59
5 08/12/2012 14:34:19 08/12/2012 14:34:33 08/12/2012 14:34:26 87.42
6 08/13/2012 07:35:51 08/13/2012 07:36:18 08/13/2012 07:36:05 36.94
7 08/14/2012 07:17:04 08/14/2012 07:17:24 08/14/2012 07:17:14 73.14
8 08/16/2012 14:59:19 08/16/2012 14:59:43 08/16/2012 14:59:31 56.73
9 08/17/2012 14:40:29 08/17/2012 14:40:54 08/17/2012 14:40:41 52.46
